Flag for Germany Weather past 2 weeks in Meppen, Lower Saxony, Germany

Now
34 °F

Chilly.


Feels Like: 31 °F
Forecast: 38 / 48 °F
Wind: 3 mph from West

Location: Meppen

Current Time: Mar 5, 2015 at 4:13:04 AM

Latest Report: Mar 5, 2015 at 3:00 AM


Visibility: 6 mi

Pressure: 30.51 "Hg

Humidity: 92%

Dew point: 32 °F

Location of MeppenLocation

Historic Weather in Meppen — Graph

°F

Meppen temperature yesterday

Maximum temperature yesterday: 45 °F (at 3:00 PM)
Minimum temperature yesterday: 34 °F (at 12:00 AM)
Average temperature yesterday: 39 °F

Past Weeks' High & Low Weather Summary

 TemperatureHumidityPressure
High49 °F (Feb 26, 3:00 PM)96% (Feb 18, 3:00 AM)30.73 "Hg (Feb 18, 3:00 AM)
Low29 °F (Feb 28, 3:00 AM)50% (Mar 2, 3:00 PM)29.26 "Hg (Feb 21, 6:00 AM)
Average39 °F81%29.85 "Hg
* Reported Feb 18 3:00 AM — Mar 5 3:00 AM, Meppen, Weather by CustomWeather, © 2015

Note: Actual official high and low records may vary slightly from our data, if they occured in-between our weather recording intervals... More about our weather records

Advertising

Meppen weather history for previous 24 hours

 ConditionsComfort  
Time TempWeatherWind HumidityBarometerVisibility
3:00 AM
Thu, Mar 5
34 °FChilly.3 mph92%30.51 "Hg6 mi
2:00 AM36 °FChilly.2 mph87%30.50 "Hg6 mi
1:00 AM38 °FChilly.2 mph84%30.47 "Hg6 mi
12:00 AM40 °FQuite cool.3 mph79%30.44 "Hg6 mi
11:00 PM
Wed, Mar 4
41 °FQuite cool.5 mph80%30.41 "Hg6 mi
9:00 PM42 °FQuite cool.3 mph76%30.31 "Hg7 mi
8:00 PM41 °FQuite cool.5 mph82%30.27 "Hg6 mi
6:00 PM40 °FQuite cool.6 mph88%30.21 "Hg7 mi
5:00 PM40 °FChilly.6 mph87%30.19 "Hg7 mi
3:00 PM45 °FPartly sunny.10 mph67%30.15 "Hg25 mi
2:00 PM45 °FPartly sunny.8 mph66%30.14 "Hg19 mi
12:00 PM42 °FOvercast.7 mph75%30.13 "Hg17 mi
11:00 AM41 °FOvercast.6 mph78%30.13 "Hg17 mi
9:00 AM38 °FOvercast.6 mph81%30.09 "Hg12 mi
8:00 AM36 °FPassing clouds.5 mph82%30.07 "Hg12 mi
6:00 AM36 °FPassing clouds.6 mph81%30.05 "Hg17 mi
5:00 AM35 °FChilly.3 mph84%30.04 "Hg7 mi
Weather by CustomWeather, © 2015

See weather overviewHow to use our weather pages